Date String (YYYY-MM-DD hh:mm:ss) UTC,Instrument flags,absolute air pressure of the measurement (hPa),sample flow rate (lpm),inlet stack bypass flow (lpm),air temperature of the measurement (°C),ambient temperature measured by the external sensor (°C),aerosol sample conditioner tube jacket temperature (°C),OPC LED temperature (°C),internal box temperature (°C),relative humidity of the measurement (%),span deviation,mass concentration of particles derived from Lorenz-Mie calculation of OPC scattering (μg/m³),mass concentration of particles derived from Lorenz-Mie calculation of OPC scattering (μg/m³),mass concentration of particles derived from Lorenz-Mie calculation of OPC scattering (μg/m³)
DateTimeUTC,F1_M11,P_M11,Q1_M11,Q2_M11,T1_M11,T2_M11,T3_M11,T4_M11,T5_M11,U1_M11,ZSPAN_M11,X0_M11,X2_M11,X1_M11
2024-04-06 14:00:00,SystemResetWarning,0810.3,5.01,000.00,019.7,018.9,000.0,028.2,021.4,013.1,0000.0,0005.79,0001.49,0000.59
2024-04-06 14:01:00,SystemResetWarning,0810.2,5.01,000.00,019.7,019.0,000.0,028.2,021.4,013.0,0000.0,0005.76,0001.48,0000.58
2024-04-06 14:02:00,SystemResetWarning,0810.2,4.99,000.00,019.7,019.0,000.0,028.2,021.4,013.0,0000.0,0005.87,0001.46,0000.56
2024-04-06 14:03:00,SystemResetWarning,0810.1,4.99,000.00,019.7,019.0,000.0,028.2,021.4,013.1,0000.0,0005.63,0001.43,0000.56
2024-04-06 14:04:00,SystemResetWarning,0810.1,4.99,000.00,019.7,019.0,000.0,028.2,021.4,013.2,0000.0,0006.00,0001.45,0000.56
2024-04-06 14:05:00,SystemResetWarning,0810.1,5.01,000.00,019.7,018.9,000.0,028.2,021.4,013.2,0000.0,0005.65,0001.48,0000.56
2024-04-06 14:06:00,SystemResetWarning,0810.1,5.01,000.00,019.7,018.9,000.0,028.2,021.4,013.1,0000.0,0005.50,0001.53,0000.55
2024-04-06 14:07:00,SystemResetWarning,0810.1,5.01,000.00,019.7,018.9,000.0,028.2,021.4,013.2,0000.0,0005.44,0001.57,0000.55
2024-04-06 14:08:00,SystemResetWarning,0810.1,4.99,000.00,019.7,018.9,000.0,028.2,021.4,013.3,0000.0,0005.60,0001.52,0000.54
2024-04-06 14:09:00,SystemResetWarning,0810.2,5.00,000.00,019.7,018.9,000.0,028.2,021.3,013.2,0000.0,0005.39,0001.45,0000.53
2024-04-06 14:10:00,SystemResetWarning,0810.2,5.00,000.00,019.7,018.9,000.0,028.1,021.3,013.5,0000.0,0005.17,0001.38,0000.53
2024-04-06 14:11:00,SystemResetWarning,0810.1,5.00,000.00,019.7,018.9,000.0,028.1,021.3,013.4,0000.0,0005.07,0001.32,0000.53
2024-04-06 14:12:00,SystemResetWarning,0810.1,5.01,000.00,019.7,018.9,000.0,028.1,021.4,013.5,0000.0,0005.06,0001.34,0000.52
2024-04-06 14:13:00,SystemResetWarning,0810.1,5.01,000.00,019.7,018.9,000.0,028.1,021.3,013.5,0000.0,0004.98,0001.38,0000.53
2024-04-06 14:14:00,SystemResetWarning,0810.0,5.00,000.00,019.7,018.9,000.0,028.1,021.3,013.6,0000.0,0004.92,0001.37,0000.53
2024-04-06 14:15:00,SystemResetWarning,0809.9,5.00,000.00,019.6,018.9,000.0,028.1,021.3,013.6,0000.0,0004.47,0001.30,0000.52
2024-04-06 14:16:00,SystemResetWarning,0809.8,4.99,000.00,019.6,018.9,000.0,028.1,021.3,013.6,0000.0,0003.57,0001.31,0000.53
2024-04-06 14:17:00,SystemResetWarning,0809.8,5.00,000.00,019.6,018.9,000.0,028.1,021.3,013.8,0000.0,0003.23,0001.23,0000.52
2024-04-06 14:18:00,SystemResetWarning,0809.8,5.00,000.00,019.6,018.9,000.0,028.1,021.3,013.9,0000.0,0002.94,0001.12,0000.50
2024-04-06 14:19:00,SystemResetWarning,0809.8,5.00,000.00,019.6,018.9,000.0,028.1,021.3,013.6,0000.0,0002.62,0001.12,0000.49
2024-04-06 14:20:00,SystemResetWarning,0809.7,5.00,000.00,019.6,018.9,000.0,028.1,021.2,013.4,0000.0,0002.67,0001.12,0000.49
2024-04-06 14:21:00,SystemResetWarning,0809.7,4.99,000.00,019.6,018.8,000.0,028.1,021.2,013.4,0000.0,0003.06,0001.08,0000.47
2024-04-06 14:22:00,SystemResetWarning,0809.7,5.00,000.00,019.6,018.8,000.0,028.0,021.2,013.5,0000.0,0003.45,0001.08,0000.47
2024-04-06 14:23:00,SystemResetWarning,0809.7,5.00,000.00,019.6,018.8,000.0,028.0,021.2,013.5,0000.0,0003.50,0001.04,0000.47
2024-04-06 14:24:00,SystemResetWarning,0809.7,5.00,000.00,019.6,018.8,000.0,028.0,021.1,013.5,0000.0,0003.37,0000.99,0000.46
2024-04-06 14:25:00,SystemResetWarning,0809.7,5.01,000.00,019.6,018.8,000.0,028.0,021.2,013.5,0000.0,0003.37,0000.96,0000.46
2024-04-06 14:26:00,SystemResetWarning,0809.7,5.00,000.00,019.5,018.8,000.0,028.0,021.2,013.6,0000.0,0003.60,0000.94,0000.45
2024-04-06 14:27:00,SystemResetWarning,0809.7,5.00,000.00,019.5,018.7,000.0,028.0,021.1,013.7,0000.0,0003.87,0000.98,0000.43
2024-04-06 14:28:00,SystemResetWarning,0809.7,5.00,000.00,019.5,018.7,000.0,028.0,021.1,014.0,0000.0,0004.37,0001.04,0000.43
2024-04-06 14:29:00,SystemResetWarning,0809.6,4.99,000.00,019.5,018.7,000.0,028.0,021.2,013.4,0000.0,0004.86,0001.10,0000.44
2024-04-06 14:30:00,SystemResetWarning,0809.5,4.99,000.00,019.5,018.7,000.0,028.0,021.1,013.5,0000.0,0005.07,0001.10,0000.42
2024-04-06 14:31:00,SystemResetWarning,0809.6,4.99,000.00,019.5,018.7,000.0,028.0,021.1,014.3,0000.0,0005.22,0001.09,0000.43
2024-04-06 14:32:00,SystemResetWarning,0809.6,5.01,000.00,019.5,018.7,000.0,028.0,021.0,014.1,0000.0,0005.83,0001.11,0000.43
2024-04-06 14:33:00,SystemResetWarning,0809.6,5.00,000.00,019.5,018.7,000.0,027.9,021.0,013.5,0000.0,0005.43,0001.11,0000.42
2024-04-06 14:34:00,SystemResetWarning,0809.7,5.00,000.00,019.5,018.7,000.0,027.9,021.0,013.3,0000.0,0005.49,0001.16,0000.42
2024-04-06 14:35:00,SystemResetWarning,0809.7,5.00,000.00,019.5,018.6,000.0,027.9,021.0,013.4,0000.0,0006.49,0001.20,0000.41
2024-04-06 14:36:00,SystemResetWarning,0809.8,5.00,000.00,019.4,018.6,000.0,027.9,021.0,014.9,0000.0,0006.61,0001.26,0000.41
2024-04-06 14:37:00,SystemResetWarning,0809.8,4.99,000.00,019.4,018.6,000.0,027.9,021.0,013.5,0000.0,0006.41,0001.28,0000.41
2024-04-06 14:38:00,SystemResetWarning,0809.7,5.00,000.00,019.4,018.6,000.0,027.9,021.0,013.4,0000.0,0006.06,0001.22,0000.41
2024-04-06 14:39:00,SystemResetWarning,0809.7,5.01,000.00,019.4,018.6,000.0,027.9,021.0,013.6,0000.0,0006.20,0001.16,0000.40
2024-04-06 14:40:00,SystemResetWarning,0809.8,5.00,000.00,019.4,018.6,000.0,027.9,020.9,013.9,0000.0,0006.55,0001.11,0000.39
2024-04-06 14:41:00,SystemResetWarning,0809.8,5.00,000.00,019.4,018.6,000.0,027.8,020.9,013.9,0000.0,0006.51,0001.10,0000.39
2024-04-06 14:42:00,SystemResetWarning,0809.8,5.01,000.00,019.4,018.6,000.0,027.8,020.9,013.8,0000.0,0006.22,0001.07,0000.38
2024-04-06 14:43:00,SystemResetWarning,0809.9,5.00,000.00,019.4,018.6,000.0,027.8,020.9,014.0,0000.0,0005.21,0001.03,0000.36
2024-04-06 14:44:00,SystemResetWarning,0810.0,5.00,000.00,019.3,018.5,000.0,027.8,020.9,014.1,0000.0,0005.36,0001.01,0000.35
2024-04-06 14:45:00,SystemResetWarning,0810.0,4.99,000.00,019.4,018.6,000.0,027.8,021.0,014.3,0000.0,0005.34,0001.00,0000.35
2024-04-06 14:46:00,SystemResetWarning,0810.0,5.00,000.00,019.3,018.6,000.0,027.8,021.0,014.3,0000.0,0004.18,0000.94,0000.35
2024-04-06 14:47:00,SystemResetWarning,0810.0,5.00,000.00,019.3,018.6,000.0,027.8,021.0,014.3,0000.0,0004.04,0000.87,0000.33
2024-04-06 14:48:00,SystemResetWarning,0809.9,5.01,000.00,019.3,018.6,000.0,027.8,021.0,014.1,0000.0,0004.00,0000.84,0000.32
2024-04-06 14:49:00,SystemResetWarning,0809.9,5.01,000.00,019.3,018.6,000.0,027.8,021.0,014.0,0000.0,0004.53,0000.84,0000.32
2024-04-06 14:50:00,SystemResetWarning,0810.0,5.00,000.00,019.3,018.6,000.0,027.8,021.0,014.2,0000.0,0004.25,0000.80,0000.30
2024-04-06 14:51:00,SystemResetWarning,0809.9,5.00,000.00,019.3,018.6,000.0,027.8,021.0,014.1,0000.0,0003.30,0000.80,0000.30
2024-04-06 14:52:00,SystemResetWarning,0810.0,4.99,000.00,019.3,018.6,000.0,027.8,021.0,013.9,0000.0,0003.08,0000.76,0000.29
2024-04-06 14:53:00,SystemResetWarning,0810.0,4.99,000.00,019.3,018.6,000.0,027.8,021.0,013.7,0000.0,0003.10,0000.73,0000.28
2024-04-06 14:54:00,SystemResetWarning,0810.0,5.00,000.00,019.3,018.7,000.0,027.8,021.0,013.6,0000.0,0004.16,0000.72,0000.28
2024-04-06 14:55:00,SystemResetWarning,0810.0,5.00,000.00,019.3,018.7,000.0,027.8,021.0,013.5,0000.0,0004.37,0000.72,0000.27
2024-04-06 14:56:00,SystemResetWarning,0810.0,5.00,000.00,019.3,018.7,000.0,027.8,021.0,012.9,0000.0,0004.17,0000.68,0000.26
2024-04-06 14:57:00,SystemResetWarning,0810.1,5.01,000.00,019.3,018.7,000.0,027.8,021.0,013.1,0000.0,0004.49,0000.68,0000.25
2024-04-06 14:58:00,SystemResetWarning,0810.1,5.01,000.00,019.3,018.7,000.0,027.8,021.0,013.2,0000.0,0004.51,0000.70,0000.24
2024-04-06 14:59:00,SystemResetWarning,0810.1,5.00,000.00,019.3,018.7,000.0,027.8,021.0,013.0,0000.0,0004.51,0000.71,0000.23
